Weather reports worldwide

Advertisment
Dunkerque, France (7010): temperature & dewpoint: 10.07.2018 18:00:00 - 16.07.2018 18:00:00 (CEST)Dunkerque, France (7010): wind speed & gusts: 10.07.2018 18:00:00 - 16.07.2018 18:00:00 (CEST)Dunkerque, France (7010): wind direction: 10.07.2018 18:00:00 - 16.07.2018 18:00:00 (CEST)Dunkerque, France (7010): reduced air pressure: 10.07.2018 18:00:00 - 16.07.2018 18:00:00 (CEST)Dunkerque, France (7010): visibility: 10.07.2018 18:00:00 - 16.07.2018 18:00:00 (CEST)Dunkerque, France (7010): precipitation: 10.07.2018 18:00:00 - 16.07.2018 18:00:00 (CEST)
Date & Time tt [°C] td [°C] ff [km/h] ff [kn] fx [km/h] fx [kn] dd ppp [hPa] vv [km] rr [mm]
16.07.2018 18:00:00 21,9 16,4 14 7 27 15 WNW 1012,9 - 0,0
16.07.2018 17:00:00 22,1 16,8 18 10 27 14 WNW 1012,9 - 0,0
16.07.2018 16:00:00 22,7 17,4 15 8 20 11 WNW 1013,2 - 0,0
16.07.2018 15:00:00 21,5 17,1 11 6 18 10 NNW 1013,3 - 0,0
16.07.2018 14:00:00 21,2 16,8 8 4 16 8 NNW 1013,5 15 0,0
16.07.2018 13:00:00 21,5 16,2 12 7 16 9 NW 1013,8 - 0,0
16.07.2018 12:00:00 21,6 16,3 9 5 16 9 NW 1013,8 - 0,0
16.07.2018 11:00:00 21,5 16,7 9 5 14 8 NNW 1013,8 15 0,0
16.07.2018 10:00:00 22,0 16,0 6 3 9 5 N 1013,6 - 0,0
16.07.2018 09:00:00 23,1 13,0 3 1 4 2 SSE 1013,7 - 0,0
16.07.2018 08:00:00 20,0 15,8 0 0 3 2 N 1013,7 10 0,0
16.07.2018 07:00:00 19,3 16,3 3 2 10 5 WNW 1013,7 - 0,0
16.07.2018 06:00:00 19,3 16,5 6 3 14 7 WNW 1013,9 - 0,0
16.07.2018 05:00:00 19,2 16,1 11 6 16 9 WNW 1014,2 16 0,0
16.07.2018 04:00:00 19,5 16,3 12 6 19 10 WNW 1014,4 - 0,0
16.07.2018 03:00:00 19,6 16,1 15 8 19 10 WNW 1014,5 - 0,0
16.07.2018 02:00:00 21,4 12,3 5 3 10 5 ESE 1014,7 - 0,0
16.07.2018 01:00:00 21,5 13,1 6 3 11 6 ESE 1014,8 - 0,0
16.07.2018 00:00:00 20,3 15,3 4 2 8 4 E 1015,1 - 0,0
15.07.2018 23:00:00 20,7 18,1 4 2 9 5 E 1015,0 40 0,0
15.07.2018 22:00:00 21,1 17,7 9 5 18 10 E 1015,0 - 0,0
15.07.2018 21:00:00 21,5 17,1 14 8 19 10 E 1014,8 - 0,0
15.07.2018 20:00:00 22,4 16,9 15 8 21 11 E 1014,6 - 0,0
15.07.2018 19:00:00 22,9 16,7 16 9 22 12 ENE 1014,7 - 0,0
15.07.2018 18:00:00 24,1 16,4 16 8 22 12 NE 1015,0 - 0,0
15.07.2018 17:00:00 24,5 16,2 16 9 24 13 NE 1015,4 15 0,0
15.07.2018 16:00:00 24,2 15,4 18 10 23 12 NE 1015,7 - 0,0
15.07.2018 15:00:00 24,4 15,9 17 9 21 12 NE 1016,1 - 0,0
15.07.2018 14:00:00 24,2 15,7 18 10 22 12 NNE 1016,5 - 0,0
15.07.2018 13:00:00 23,3 15,4 14 8 18 10 NE 1016,9 - 0,0
15.07.2018 12:00:00 22,5 15,1 12 6 14 8 NE 1017,2 - 0,0
15.07.2018 11:00:00 22,6 15,2 8 5 10 5 NE 1017,3 - 0,0
15.07.2018 10:00:00 21,2 14,4 6 3 13 7 NE 1017,4 - 0,0
15.07.2018 09:00:00 20,4 14,1 8 4 10 5 ENE 1017,5 - 0,0
15.07.2018 08:00:00 20,1 14,0 5 3 10 5 ENE 1017,5 10 0,0
15.07.2018 07:00:00 18,3 14,4 6 3 9 5 ENE 1017,2 - 0,0
15.07.2018 06:00:00 16,8 14,1 3 2 5 3 NE 1017,2 - 0,0
15.07.2018 05:00:00 16,8 13,9 3 1 7 4 SSW 1017,6 - 0,0
15.07.2018 04:00:00 17,7 14,4 5 3 11 6 SSE 1017,7 - 0,0
15.07.2018 03:00:00 18,1 14,4 9 5 15 8 ESE 1018,0 - 0,0
15.07.2018 02:00:00 18,4 14,5 11 6 16 9 E 1018,3 - 0,0
15.07.2018 01:00:00 18,9 14,0 13 7 21 11 E 1018,6 - 0,0
15.07.2018 00:00:00 19,2 16,2 18 10 27 15 E 1018,6 - 0,0
14.07.2018 23:00:00 19,0 16,2 19 10 28 15 ENE 1018,7 20 0,0
14.07.2018 22:00:00 19,0 16,4 19 10 27 14 NE 1018,7 - 0,0
14.07.2018 21:00:00 19,8 16,2 17 9 24 13 NE 1018,7 - 0,0
14.07.2018 20:00:00 20,1 16,1 18 10 26 14 ENE 1018,8 - 0,0
14.07.2018 19:00:00 20,7 15,9 22 12 29 16 NE 1019,3 - 0,0
14.07.2018 18:00:00 21,0 16,4 20 11 26 14 NNE 1019,7 - 0,0
14.07.2018 17:00:00 21,6 16,1 19 10 26 14 NNE 1019,8 15 0,0
14.07.2018 16:00:00 20,9 15,4 22 12 29 15 NNE 1020,2 - 0,0
14.07.2018 15:00:00 21,3 15,8 24 13 29 15 NNE 1020,5 - 0,0
14.07.2018 14:00:00 21,2 15,1 20 11 25 13 NNE 1020,9 - 0,0
14.07.2018 13:00:00 21,2 15,3 17 9 21 12 NNE 1021,1 - 0,0
14.07.2018 12:00:00 21,2 15,3 17 9 22 12 NE 1021,3 - 0,0
14.07.2018 11:00:00 20,5 14,8 15 8 21 11 NE 1021,6 15 0,0
14.07.2018 10:00:00 19,9 14,9 11 6 16 9 ENE 1021,7 - 0,0
14.07.2018 09:00:00 19,8 14,6 9 5 17 9 NE 1021,7 - 0,0
14.07.2018 08:00:00 18,2 14,1 13 7 20 11 ENE 1021,4 - 0,0
14.07.2018 07:00:00 17,2 13,5 14 8 21 12 NE 1021,3 - 0,0
14.07.2018 06:00:00 16,9 13,6 13 7 21 11 NE 1021,5 - 0,0
14.07.2018 05:00:00 16,8 13,7 14 8 20 11 NE 1021,4 - 0,0
14.07.2018 04:00:00 16,7 14,0 15 8 21 11 NE 1021,5 - 0,0
14.07.2018 03:00:00 16,7 13,8 16 9 25 13 NE 1021,9 - 0,0
14.07.2018 02:00:00 16,8 13,9 20 11 25 13 NE 1022,0 - 0,0
14.07.2018 01:00:00 16,8 13,7 17 9 24 13 NE 1022,1 - 0,0
14.07.2018 00:00:00 16,9 13,6 19 10 25 13 NE 1022,0 - 0,0
13.07.2018 23:00:00 16,9 13,6 19 10 26 14 NE 1021,9 10 0,0
13.07.2018 22:00:00 17,1 13,6 18 10 27 14 NE 1021,5 - 0,0
13.07.2018 21:00:00 17,9 13,8 16 9 27 15 NE 1021,4 - 0,0
13.07.2018 20:00:00 18,5 13,8 20 11 26 14 NE 1021,4 - 0,0
13.07.2018 19:00:00 19,0 13,8 20 11 29 15 NNE 1021,6 - 0,0
13.07.2018 18:00:00 19,3 13,9 19 10 24 13 NNE 1021,9 - 0,0
13.07.2018 17:00:00 19,9 13,8 17 9 25 14 NNE 1022,4 - 0,0
13.07.2018 16:00:00 19,6 13,1 17 9 26 14 NNE 1022,6 - 0,0
13.07.2018 15:00:00 19,2 13,8 17 9 24 13 NNE 1022,6 - 0,0
13.07.2018 14:00:00 19,8 13,5 16 8 22 12 NNE 1022,8 15 0,0
13.07.2018 13:00:00 18,2 13,3 15 8 21 11 NNE 1022,9 - 0,0
13.07.2018 12:00:00 17,8 13,3 14 8 21 11 NNE 1023,1 - 0,0
13.07.2018 11:00:00 18,2 13,3 15 8 23 12 NNE 1022,8 15 0,0
13.07.2018 10:00:00 18,1 13,4 14 8 22 12 NNE 1022,7 - 0,0
13.07.2018 09:00:00 17,1 13,4 14 7 22 12 NNE 1022,6 - 0,0
13.07.2018 08:00:00 16,8 13,3 14 8 21 11 NNE 1022,2 15 0,0
13.07.2018 07:00:00 16,6 13,9 12 6 17 9 NNE 1022,1 - 0,0
13.07.2018 06:00:00 16,6 13,9 13 7 20 11 NNE 1022,1 - 0,0
13.07.2018 05:00:00 16,6 13,7 15 8 21 12 NNE 1022,0 - 0,0
13.07.2018 04:00:00 16,6 13,5 14 7 21 11 NNE 1022,2 - 0,0
13.07.2018 03:00:00 16,7 13,8 15 8 21 12 NNE 1022,2 - 0,0
13.07.2018 02:00:00 16,7 14,2 17 9 23 12 NE 1022,0 - 0,0
13.07.2018 01:00:00 16,9 14,2 18 10 25 14 NE 1022,1 - 0,0
13.07.2018 00:00:00 16,7 14,0 16 9 22 12 NE 1022,2 - 0,0
12.07.2018 23:00:00 16,5 13,8 16 9 24 13 NE 1022,1 10 0,0
12.07.2018 22:00:00 16,5 13,8 21 11 27 15 NNE 1021,6 - 0,0
12.07.2018 21:00:00 16,6 13,7 18 10 29 15 NNE 1021,6 - 0,0
12.07.2018 20:00:00 16,9 13,4 18 10 25 14 NNE 1021,6 - 0,0
12.07.2018 19:00:00 17,5 13,8 15 8 25 14 NNE 1021,5 - 0,0
12.07.2018 18:00:00 17,8 13,5 16 9 25 14 NNE 1021,7 - 0,0
12.07.2018 17:00:00 17,6 13,7 16 9 23 13 N 1021,9 - 0,0
12.07.2018 16:00:00 17,6 13,3 18 10 25 13 NNE 1022,1 - 0,0
12.07.2018 15:00:00 17,6 13,7 13 7 23 12 N 1022,1 - 0,0
12.07.2018 14:00:00 17,5 13,4 14 7 21 11 NNE 1022,2 - 0,0
12.07.2018 13:00:00 17,3 13,2 14 8 22 12 NNE 1022,2 - 0,0
12.07.2018 12:00:00 16,8 13,5 14 8 22 12 NNE 1022,0 - 0,0
12.07.2018 11:00:00 16,5 13,0 15 8 25 14 N 1021,7 10 0,0
12.07.2018 10:00:00 16,4 13,1 16 8 23 13 NNE 1021,4 - 0,0
12.07.2018 09:00:00 16,4 12,7 15 8 23 13 N 1021,2 - 0,0
12.07.2018 08:00:00 16,1 12,6 11 6 25 14 N 1020,8 - 0,0
12.07.2018 07:00:00 15,8 13,6 15 8 24 13 N 1020,4 - 0,0
12.07.2018 06:00:00 15,7 12,8 14 7 27 15 N 1020,5 - 0,0
12.07.2018 05:00:00 16,0 12,9 13 7 26 14 N 1020,5 - 0,0
12.07.2018 04:00:00 16,0 13,3 16 9 29 16 NNE 1020,4 - 0,0
12.07.2018 03:00:00 16,1 13,6 19 10 31 17 NNE 1020,4 - 0,0
12.07.2018 02:00:00 16,3 14,0 20 11 28 15 NNE 1020,6 - 0,0
12.07.2018 01:00:00 16,4 14,1 16 9 26 14 NNE 1020,7 - 0,0
12.07.2018 00:00:00 16,4 13,7 20 11 29 15 NNE 1020,9 - 0,0
11.07.2018 23:00:00 16,8 13,9 23 12 29 16 NNE 1020,8 10 0,0
11.07.2018 22:00:00 17,0 13,3 22 12 28 15 NNE 1020,7 - 0,0
11.07.2018 21:00:00 17,4 13,5 18 10 28 15 NNE 1020,6 - 0,0
11.07.2018 20:00:00 18,1 13,2 18 10 29 16 NNE 1020,5 - 0,0
11.07.2018 19:00:00 18,5 13,4 23 12 31 17 NNE 1020,2 - 0,0
11.07.2018 18:00:00 18,6 13,7 18 10 28 15 N 1020,4 - 0,0
11.07.2018 17:00:00 18,1 13,8 19 10 29 16 N 1020,6 - 0,0
11.07.2018 16:00:00 19,1 13,7 19 10 29 16 N 1020,7 - 0,0
11.07.2018 15:00:00 18,7 13,3 21 11 35 19 N 1020,8 - 0,0
11.07.2018 14:00:00 18,1 13,8 20 11 34 18 N 1020,9 8 0,0
11.07.2018 13:00:00 16,7 14,3 22 12 35 19 N 1020,9 - 0,2
11.07.2018 12:00:00 16,4 14,8 18 10 34 18 N 1020,9 - 0,0
11.07.2018 11:00:00 16,6 13,9 21 11 32 18 N 1020,8 8 0,0
11.07.2018 10:00:00 16,4 13,5 22 12 37 20 N 1020,6 - 0,0
11.07.2018 09:00:00 16,1 14,3 20 11 37 20 N 1020,6 - 0,0
11.07.2018 08:00:00 15,9 14,1 20 11 34 18 N 1020,4 8 0,0
11.07.2018 07:00:00 16,1 13,6 19 10 36 19 N 1020,2 - 0,0
11.07.2018 06:00:00 15,7 13,9 21 11 36 20 N 1020,3 - 0,0
11.07.2018 05:00:00 16,2 14,0 23 12 46 25 N 1020,2 15 0,0
11.07.2018 04:00:00 16,4 13,7 30 16 45 25 N 1020,2 - 0,0
11.07.2018 03:00:00 16,3 14,0 26 14 43 23 N 1020,5 - 0,0
11.07.2018 02:00:00 16,5 13,2 29 15 42 23 N 1020,9 15 0,0
11.07.2018 01:00:00 16,4 13,5 25 13 43 23 N 1021,3 - 0,0
11.07.2018 00:00:00 16,4 13,7 29 15 43 23 N 1021,5 - 0,0
10.07.2018 23:00:00 16,5 13,8 27 14 45 25 N 1021,8 15 0,0
10.07.2018 22:00:00 16,4 13,1 25 13 44 24 N 1021,5 - 0,0
10.07.2018 21:00:00 16,3 13,0 26 14 45 24 N 1021,5 15 0,0
10.07.2018 20:00:00 16,5 12,6 27 14 46 25 N 1021,5 - 0,0
10.07.2018 19:00:00 16,5 12,5 27 15 44 24 N 1021,5 - 0,0
10.07.2018 18:00:00 16,6 12,1 26 14 42 23 N 1021,6 - 0,0

tt = temperature
td = dewpoint
ff = wind speed
fx = gusts
dd = wind direction
ppp = reduced air pressure
vv = visibility
rr = precipitation

Next stations